Location: Oulou
(10.7667°N, 12.5167°W)
Time: 14:55:59
(UTC+00:00)

N. Korean satellite - Visible Passes

Search period start: 21 November 2019 00:00
Search period end: 01 December 2019 00:00
Orbit: 456 x 506 km, 97.2° (Epoch: 21 November)

Date Brightness Start Highest point End Pass type
(mag) Time Alt. Az. Time Alt. Az. Time Alt. Az.
21 Nov 9.8 18:54:50 10° SW 18:57:26 19° W 19:00:04 10° NW visible
23 Nov 7.8 06:10:37 10° NNE 06:14:04 47° E 06:17:28 10° S visible
24 Nov 9.7 05:46:12 10° NE 05:48:41 18° E 05:51:08 10° SE visible
24 Nov 10.6 19:14:07 10° WSW 19:14:36 10° W 19:15:06 10° W visible
25 Nov 9.3 18:46:10 10° SSW 18:49:13 26° W 18:52:17 10° NW visible
27 Nov 8.5 06:02:35 10° NNE 06:05:49 33° E 06:09:01 10° SSE visible
28 Nov 10.0 05:38:41 10° ENE 05:40:25 13° E 05:42:08 10° SE visible
28 Nov 10.0 19:04:23 10° SW 19:06:21 14° W 19:08:20 10° WNW visible
30 Nov 6.9 06:19:24 10° NNE 06:22:56 70° ESE 06:26:23 10° S visible
